TITAN 3C TRANSTAGE DEB, 1671

Orbit data source: Space-Track

TITAN 3C TRANSTAGE DEB, 1671 is space debris in LEO originally from a launch on Fri, 15 Oct 1965 UTC launched from the Air Force Eastern Test Range (AFETR). Debris objects in space refer to the collection of defunct objects orbiting the Earth. Examples of debris include non-operational satellites, rocket bodies, and fragments generated from explosions, collisions, or faulty payload assembly.

Loading next visibility...
Identifier
1671, 1965-082AJ
Orbit
LEO
Last TLE update
1 day ago
Origin
Manufacturer
Unknown
Mission
Spacecraft
Bus & Motor
Unknown
Mass
Unknown
Launch date (UTC)
1965-10-15 (60 years ago)
Launch vehicle
Unknown
Launch site
Air Force Eastern Test Range (AFETR)
Object type
Payload
Rocket body
Debris
Shape & HBR
Unknown
Radar Cross Section
Medium (>0.1 m² and <1 m²)

Expand to show TLE details & history

TLE from 1 day ago
0 TITAN 3C TRANSTAGE DEB
1 01671U 65082AJ  25118.89020228  .00001108  00000-0  24818-3 0  9990
2 01671  32.1619 309.6540 0052309 146.5101 213.8865 14.53572902126069
Epoch: 2025-04-28T21:21Z
Definitive object data (Epoch: 2025-04-28T21:21:53.477Z)
Latitude
-0.00001°
Longitude
132.08343°
Altitude
743.51 km
Speed
7.469 km/s
True Right ascension
20h 38m 36s
True Declination
0° 00' 00"
Sunlit
Object was in daylight at TLE epoch
Visualization TLE readout
Latitude
29.48757°
Longitude
-170.95635°
Altitude
712.758 km
Speed
7.505 km/s
Apparent Right ascension
22h 20m 13s
Apparent Declination
-3° 49' 52"
Sunlit
Object is in daylight
Visualization observer readout
Local Sidereal Time
07:35:02
Azimuth
303.133° NW
Elevation
-38.159°
Doppler factor
1
Orbital elements
Apogee altitude
754.696 km
Perigee altitude
680.462 km
Semi-major axis
7,095.716 km
Eccentricity
0.0052309
Inclination
32.1619°
RAAN
309.654°
Arg. of periapsis
146.5101°
True anomaly
213.5541°
Mean anomaly
213.8865°
Eccentric anomaly
213.72012°
Mean motion
3.63119 °/min
BSTAR
0.00024818
Orbital period
99.14 mins
Loading maneuver chart data...
Loading SW <> Apogee altitude chart data...

TITAN 3C TRANSTAGE DEB Visibility forecast

Observer location: undefined°, undefined°

Span
Click to sort rows by Start time (UTC) header in descending order
Start Az.
Max El. time (UTC)
Max El. Az.
Max El.
End time (UTC)
End Az.
6 mins2025-04-30 16:29:44.752Z205.225° SW2025-04-30 16:32:44.752Z156.261° SSE22.763°2025-04-30 16:35:44.752Z115.618° SE
7 mins2025-04-30 18:13:44.752Z233.093° WSW2025-04-30 18:16:44.752Z179.892° S29.168°2025-04-30 18:20:44.752Z118.695° SE
6 mins2025-04-30 19:58:44.752Z234.814° WSW2025-04-30 20:00:44.752Z203.5° SW22.782°2025-04-30 20:04:44.752Z143.583° SSE
|